Simultaneous Nadir Overpasses (SNOs) Predictions

Prediction of SNOs between METOP-A and TERRA Satellite Orbit:

Table of predicted SNOs for the next 14.0 days since TLE Epoch: 1/13/2012
Index Date Time (METOP-A) METOP-A Lat,Lon TERRA Lat,Lon Distance(km) Time Diff (sec)
1 01/15/2012 04:55:08 81.28, 152.85 81.27, 152.70 2.70 25
2 01/15/2012 05:45:48 -81.28, -39.56 -81.29, -39.38 3.05 49
3 01/18/2012 00:29:34 81.28,-140.83 81.28,-140.72 1.96 12
4 01/18/2012 01:20:13 -81.29, 27.18 -81.29, 27.22 1.08 61
5 01/20/2012 19:13:18 -81.28, 118.17 -81.28, 118.07 1.66 74
6 01/20/2012 20:03:58 81.28, -74.19 81.28, -74.23 0.67 0
7 01/20/2012 20:54:38 -81.29, 93.48 -81.28, 93.36 2.20 73
8 01/23/2012 14:47:44 -81.27,-175.59 -81.28,-175.50 1.47 61
9 01/23/2012 15:38:24
